TimeEDT,TemperatureF,Dew PointF,Humidity,Sea Level PressureIn,VisibilityMPH,Wind Direction,Wind SpeedMPH,Gust SpeedMPH,PrecipitationIn,Events,Conditions,WindDirDegrees,DateUTC
12:54 AM,51.1,37.9,61,30.06,10.0,WNW,6.9,-,N/A,,Clear,290,2012-10-11 04:54:00
1:54 AM,48.9,37.9,66,30.06,10.0,WNW,5.8,-,N/A,,Clear,290,2012-10-11 05:54:00
2:54 AM,50.0,37.0,61,30.09,10.0,WNW,16.1,21.9,N/A,,Clear,300,2012-10-11 06:54:00
3:54 AM,48.9,36.0,61,30.12,10.0,WNW,9.2,-,N/A,,Clear,300,2012-10-11 07:54:00
4:54 AM,48.0,36.0,63,30.14,10.0,WNW,6.9,-,N/A,,Clear,300,2012-10-11 08:54:00
5:54 AM,46.0,35.1,66,30.17,10.0,WNW,9.2,-,N/A,,Clear,300,2012-10-11 09:54:00
6:54 AM,45.0,33.1,63,30.20,10.0,WNW,6.9,-,N/A,,Clear,290,2012-10-11 10:54:00
7:54 AM,46.9,32.0,56,30.23,10.0,WNW,5.8,-,N/A,,Clear,290,2012-10-11 11:54:00
8:54 AM,48.9,30.9,50,30.25,10.0,NW,11.5,19.6,N/A,,Clear,320,2012-10-11 12:54:00
9:54 AM,51.1,30.9,46,30.25,10.0,NW,11.5,23.0,N/A,,Clear,310,2012-10-11 13:54:00
10:54 AM,52.0,32.0,47,30.26,10.0,WNW,13.8,-,N/A,,Clear,300,2012-10-11 14:54:00
11:54 AM,55.0,33.1,43,30.25,10.0,WNW,11.5,-,N/A,,Clear,300,2012-10-11 15:54:00
12:54 PM,55.9,32.0,40,30.23,10.0,Variable,3.5,-,N/A,,Clear,0,2012-10-11 16:54:00
1:54 PM,57.9,32.0,37,30.21,10.0,North,5.8,-,N/A,,Clear,350,2012-10-11 17:54:00
2:54 PM,57.9,32.0,37,30.21,10.0,SW,6.9,-,N/A,,Clear,230,2012-10-11 18:54:00
3:54 PM,59.0,30.9,35,30.20,10.0,WSW,4.6,-,N/A,,Clear,250,2012-10-11 19:54:00
4:54 PM,59.0,32.0,36,30.18,10.0,WSW,8.1,-,N/A,,Clear,250,2012-10-11 20:54:00
5:54 PM,57.2,33.8,41,30.18,10.0,WSW,6.9,-,N/A,,Clear,240,2012-10-11 21:54:00
6:54 PM,52.0,35.1,53,30.19,10.0,West,5.8,-,N/A,,Clear,270,2012-10-11 22:54:00
7:54 PM,52.0,34.0,50,30.19,10.0,WSW,4.6,-,N/A,,Clear,250,2012-10-11 23:54:00
8:54 PM,51.1,36.0,56,30.21,10.0,WSW,4.6,-,N/A,,Clear,240,2012-10-12 00:54:00
9:54 PM,48.9,37.0,64,30.21,10.0,West,5.8,-,N/A,,Clear,260,2012-10-12 01:54:00
10:54 PM,50.0,36.0,59,30.19,10.0,SW,6.9,-,N/A,,Clear,230,2012-10-12 02:54:00
11:54 PM,46.9,37.9,71,30.19,10.0,Calm,Calm,-,N/A,,Clear,0,2012-10-12 03:54:00